Regional Weather Roundup
Issued by NWS

Home | Current Version | Previous Version | Text Only | Print | Product List | Glossary Off
Versions: 1 2 3 4 5 6 7 8 9 10 11 12 13 14 15 16 17 18 19 20 21 22 23 24 25 26 27 28 29 30 31 32 33 34 35 36 37 38 39 40 41 42 43 44 45 46 47 48 49 50

000
ASUS45 KTFX 281304
RWRMT
MONTANA HOURLY WEATHER ROUNDUP
NATIONAL WEATHER SERVICE GREAT FALLS MT
604 AM MST FRI NOV 28 2014

NOTE: "FAIR" INDICATES FEW OR NO CLOUDS BELOW 12000 FEET WITH NO
SIGNIFICANT WEATHER AND/OR OBSTRUCTIONS TO VISIBILITY.

* THESE STATIONS ARE NOT UNDER NWS QUALITY CONTROL. THEY DO NOT
   REPORT WEATHER SUCH AS PRECIPITATION OR FOG.

MTZ001>007-043-281400-
WEST OF THE DIVIDE
CITY           SKY/WX    TMP DP  RH WIND       PRES   REMARKS
KALISPELL      CLOUDY    45  37  74 SE10      29.56F
MISSOULA       CLOUDY    48  36  63 CALM      29.69F
BUTTE          CLOUDY    45  27  49 S9G18     29.74F
MULLAN PASS    LGT RAIN  36  36 100 SW14G28   29.62F VSB 3/4  WCI  27
* ESSEX        N/A       39  37  93 SW4        N/A
* LINCOLN      N/A       39  35  86 NW3        N/A
* LOOKOUT PASS N/A       41  38  89 E9G19      N/A
* POLSON       N/A       43  36  76 S3G11      N/A
* RONAN APT    PTCLDY    46  37  71 SE10G16    N/A
* SEELEY LAKE  N/A       40  36  86 SW2G8      N/A
* THOMP F APT  MOCLDY    35  26  70 NE5G10     N/A   WCI  31
* YAAK HILL    N/A       51  32  48 S7G22      N/A
$$

MTZ008-052>055-281400-
SOUTHWEST MONTANA
CITY           SKY/WX    TMP DP  RH WIND       PRES   REMARKS
BOZEMAN        CLOUDY    45  30  56 N3        29.71F
DILLON         CLOUDY    45  28  51 SW15      29.75F
* W YELLOWSTON CLOUDY    37  25  62 SW4G11     N/A
* ENNIS APT    CLOUDY   N/A N/A N/A N/A        N/A
* THREE FORKS  CLOUDY    52  52 100 SW10G15    N/A
* BOULDER HILL N/A       43  23  45 S9G22      N/A
* MONIDA PASS  N/A       34  25  70 S23        N/A   WCI  22
* RAYNOLDS PAS N/A       40  25  55 SE12G18    N/A   WCI  33
* WHITEHALL    N/A       51  28  41 SW12G20    N/A
* WISE RIVER   N/A       42  27  55 NW9G21     N/A
$$

MTZ009>010-012-014-046-048-049-054-281400-
EAST SLOPES AND CENTRAL MONTANA
CITY           SKY/WX    TMP DP  RH WIND       PRES   REMARKS
CUT BANK       CLEAR     39  34  82 W18       29.48F WCI  30
GREAT FALLS    PTCLDY    48  34  59 SW22G31   29.53F
HELENA         CLOUDY    43  34  71 CALM      29.66F
MALMSTROM AFB  MOCLDY    50  34  54 SW23G29   29.55F
* DEARBORN     N/A       53  34  49 SE11G26    N/A
* EAST GLACIER N/A       39  35  86 W19G32     N/A   WCI  29
* MONARCH      N/A       45  22  40 SW23G34    N/A
* PENDROY      N/A       41  36  82 W17G22     N/A
* ROGERS PASS  N/A       40  33  76 SE14G22    N/A   WCI  32
* SAINT MARY   N/A       40  38  93 S6G12      N/A   WCI  36
* SWEET GRASS  N/A       21  21 100 NE2        N/A
$$

MTZ011-013-016-021-035-040-045-047-050-051-281400-
NORTH CENTRAL MONTANA
CITY           SKY/WX    TMP DP  RH WIND       PRES   REMARKS
HAVRE          FOG       28  27  96 E6        29.52F VSB M1/4 WCI  21
LEWISTOWN      MOCLDY    48  30  50 W18       29.59F
* N BAR RANCH  CLEAR     50  27  41 W8        29.60F
* CHESTER      N/A       15  12  88 N/A        N/A
* DENTON       N/A       39  29  67 SW8        N/A   WCI  33
* GEYSER       N/A       50  27  41 SW16G26    N/A
* JUDITH GAP   N/A       51  25  36 S6G17      N/A
* LOMA         N/A       48  36  63 S6G11      N/A
$$

MTZ017>020-022>027-061-062-281400-
NORTHEAST MONTANA
CITY           SKY/WX    TMP DP  RH WIND       PRES   REMARKS
GLASGOW        PTCLDY    18  16  92 E15       29.60F WCI   4
GLENDIVE       CLOUDY    23  21  92 E3        29.63S
JORDAN         CLOUDY    30  28  92 CALM      29.57F
SIDNEY         MOCLDY    19  18  96 CALM      29.68S
WOLF POINT     CLOUDY    18  16  92 E13       29.66F WCI   5
* BEAVER HILL  N/A       40  31  70 S15        N/A   WCI  32
* CIRCLE       N/A       25  23  92 NE3G8      N/A
* LINDSAY DVD  N/A       45  35  68 SW12       N/A
* NAVAJO       N/A       11   9  92 E6         N/A   WCI   1
* SACO         N/A       21  20  96 E12        N/A   WCI   9
$$

MTZ028>042-056>058-281400-
SOUTHCENTRAL AND SOUTHEAST MONTANA
CITY           SKY/WX    TMP DP  RH WIND       PRES   REMARKS
BAKER          CLOUDY    43  30  60 SW13      29.64F
BILLINGS       CLOUDY    45  30  56 SW8       29.65F
LIVINGSTON     CLOUDY    54  25  33 SW33G46   29.65F
MILES CITY     CLOUDY    37  30  76 SE10      29.62F WCI  30
* LAUREL APT   CLOUDY    43  21  42 N/A        N/A
* ALZADA       N/A       39  30  70 N/A        N/A
* HYSHAM       N/A       53  25  34 W6G12      N/A
* LAME DEER    N/A       48  27  44 SW9        N/A
* REED POINT   N/A       51  28  41 SW9        N/A
* ROSCOE HILL  N/A       50  13  23 SW26G42    N/A
$$

REGIONAL REPORTS...DAKOTAS
CITY           SKY/WX    TMP DP  RH WIND       PRES   REMARKS
WILLISTON      CLOUDY    18  12  77 E7        29.71F WCI   9
DICKINSON      CLOUDY    19  16  88 E7        29.63F WCI  10
BEACH          CLEAR     34  32  92 SE3       29.63S
CROSBY         CLOUDY     9   5  84 E20       29.75F WCI -10
BISMARCK       CLOUDY    10   7  88 SE10      29.77F WCI  -4
GRAND FORKS    CLOUDY    12   7  80 SE6       30.00S WCI   2
FARGO          CLOUDY    12   7  80 SE6       29.97F WCI   2
BUFFALO SD     MOCLDY    39  28  65 W8        29.59F WCI  33
RAPID CITY     MOCLDY    43  28  56 N3        29.70R
$$

REGIONAL REPORTS...WYOMING/IDAHO/WASHINGTON
CITY           SKY/WX    TMP DP  RH WIND       PRES   REMARKS
GILLETTE       CLOUDY    46  27  48 SW17      29.73S
SHERIDAN       CLOUDY    50  25  38 CALM      29.69F
CODY           MOCLDY    54  19  25 SW26G47   29.70R
YELLOWSTONE LA CLOUDY    37  19  48 VRB7      29.95F WCI  32
SALMON         CLOUDY    45  30  56 NE6       29.78F
MULLAN PASS    LGT RAIN  36  36 100 SW14G28   29.62S VSB 3/4  WCI  27
SAND POINT     CLOUDY    50  39  66 SW9G20    29.56F
SPOKANE        PTCLDY    48  41  77 SW22      29.58F
$$

REGIONAL REPORTS...ALBERTA
CITY           SKY/WX    TMP DP  RH WIND       PRES   REMARKS
CALGARY        SNOW      -2  -8  75 N17G25    29.58F VSB 2 1/2 WCI -23
$$

REGIONAL REPORTS...SASKATCHEWAN
CITY           SKY/WX    TMP DP  RH WIND       PRES   REMARKS
SWIFT CURRENT  FOG       12  10  92 SE13      29.54F VSB 1 1/4 WCI  -3

$$




USA.gov is the U.S. government's official web portal to all federal, state and local government web resources and services.